This demonstration page uses our WeatherBlox Daily Observations layout. Learn more.

Left ArrowRight Arrow

Hourly Observations for August 7, 2017

Temp ( °F °C ) Dew Point ( °F °C ) Humidity (%) Winds ( mph kmh ) Pressure ( in mb ) Visibility ( mi km ) Precip ( " mm )
12:51 am 00:51 Clear 72 22.2 46 7.8 40 40 NNW 7 11 29.82 1010 10 16.0934 0 0
1:51 am 01:51 Clear 71 21.7 47 8.3 42 42 NW 5 7 29.81 1009 10 16.0934 0 0
2:51 am 02:51 Clear 67 19.4 50 10 55 55 E 3 6 29.81 1010 10 16.0934 0 0
3:51 am 03:51 Clear 67 19.4 50 10 55 55 NE 3 6 29.81 1010 10 16.0934 0 0
4:51 am 04:51 Clear 65 18.3 51 10.6 61 61 Calm 29.83 1010 10 16.0934 0 0
5:51 am 05:51 Sunny 64 17.8 51 10.6 63 63 NE 5 7 29.85 1011 10 16.0934 0 0
6:51 am 06:51 Sunny 71 21.7 51 10.6 49 49 Calm 29.86 1011 10 16.0934 0 0
7:51 am 07:51 Sunny 75 23.9 53 11.7 46 46 Calm 29.88 1012 10 16.0934 0 0
8:51 am 08:51 Sunny 80 26.7 48 8.9 33 33 WSW 5 7 29.88 1012 10 16.0934 0 0
9:51 am 09:51 Sunny 85 29.4 52 11.1 32 32 Calm 29.88 1012 10 16.0934 0 0
10:51 am 10:51 Sunny 91 32.8 49 9.4 24 24 NW 8 13 29.86 1011 10 16.0934 0 0
11:51 am 11:51 Sunny 93 33.9 47 8.3 21 21 W 7 11 29.85 1011 10 16.0934 0 0
12:51 pm 12:51 Sunny 95 35 47 8.3 19 19 VRB 7 11 29.83 1010 10 16.0934 0 0
1:51 pm 13:51 Sunny 96 35.6 47 8.3 19 19 W 8 13 29.81 1010 10 16.0934 0 0
2:51 pm 14:51 Sunny 96 35.6 50 10 21 21 NNW 6 9 29.79 1009 10 16.0934 0 0
3:51 pm 15:51 Sunny 97 36.1 48 8.9 19 19 W 8 13 29.76 1008 10 16.0934 0 0
4:51 pm 16:51 Sunny 96 35.6 47 8.3 19 19 NW 8 13 29.76 1008 10 16.0934 0 0
5:51 pm 17:51 Sunny 96 35.6 44 6.7 17 17 W 12 19 29.75 1008 10 16.0934 0 0
6:51 pm 18:51 Sunny 93 33.9 43 6.1 18 18 WNW 9 15 29.76 1008 10 16.0934 0 0
7:51 pm 19:51 Clear 86 30 46 7.8 25 25 NW 9 15 29.78 1009 10 16.0934 0 0
8:51 pm 20:51 Clear 80 26.7 48 8.9 33 33 W 8 13 29.82 1010 10 16.0934 0 0
9:51 pm 21:51 Clear 81 27.2 47 8.3 30 30 NW 10 17 29.82 1010 10 16.0934 0 0
10:51 pm 22:51 Clear 77 25 47 8.3 35 35 NW 9 15 29.82 1010 10 16.0934 0 0
11:51 pm 23:51 Clear 76 24.4 46 7.8 35 35 N 5 7 29.82 1010 10 16.0934 0 0

Powered by AerisWeather